Meteo Giornale » Osservazioni meteo Croazia » Zadar-Zemunik
ore: 20:00 - Osservazioni Meteo Zadar-Zemunik
Lat. 44° 6' N Lon. 15° 21' E Alt. 82 metri s.l.m.
26 °C
Sereno
Temp. 24 Ore
17 °C
34 °C
Ovest/Nord-Ovest
11.1 Km/h
Dew point 14 °C
Umidità 47 %
Visibilità 10 Km
Il sole sorge alle ore 06:21
Il sole tramonta alle ore 19:35
| Data e Ora | Cielo e Fenomeni | T °C | DP °C | Um. % | Pres. hPa | Vis. km | Vento km/h | |
|---|---|---|---|---|---|---|---|---|
| Oggi h: 20:00 | Sereno | 26 | 14 | 47 | 1016 | 10 | O/NO 11.1 | |
| Oggi h: 19:30 | Sereno | 27 | 15 | 47 | 1016 | 10 | NO 16.7 | |
| Oggi h: 19:00 | Poco Nuvoloso | 29 | 14 | 39 | 1016 | 10 | NO 18.5 | |
| Oggi h: 18:30 | Poco Nuvoloso | 30 | 13 | 35 | 1016 | 10 | NO 20.3 | |
| Oggi h: 18:00 | Poco Nuvoloso | 31 | 14 | 35 | 1016 | 10 | O/NO 22.2 | |
| Oggi h: 17:30 | Poco Nuvoloso | 31 | 14 | 35 | 1016 | 10 | NO 22.2 | |
| Oggi h: 17:00 | Poco Nuvoloso | 32 | 13 | 31 | 1016 | 10 | NO 24 | |
| Oggi h: 16:30 | Poco Nuvoloso | 32 | 14 | 33 | 1016 | 10 | NO 24 | |
| Oggi h: 16:00 | Poco Nuvoloso | 34 | 13 | 28 | 1016 | 10 | O 22.2 | |
| Oggi h: 15:30 | Poco Nuvoloso | 33 | 13 | 29 | 1016 | 10 | O 18.5 | |
| Oggi h: 15:00 | Poco Nuvoloso | 34 | 13 | 28 | 1016 | 10 | O 18.5 | |
| Oggi h: 14:30 | Poco Nuvoloso | 34 | 13 | 28 | 1016 | 10 | O 20.3 | |
| Oggi h: 14:00 | Sereno | 33 | 13 | 29 | 1017 | 10 | NO 16.7 | |
| Oggi h: 13:30 | Sereno | 33 | 13 | 29 | 1017 | 10 | N 11.1 | |
| Oggi h: 13:00 | Sereno | 34 | 13 | 28 | 1017 | 10 | N 9.3 | |
| Oggi h: 12:30 | Sereno | 32 | 13 | 31 | 1017 | 10 | E 14.8 | |
| Oggi h: 12:00 | Sereno | 32 | 12 | 29 | 1017 | 10 | E 18.5 | |
| Oggi h: 11:30 | Sereno | 32 | 13 | 31 | 1017 | 10 | E/NE 18.5 | |
| Oggi h: 11:00 | Sereno | 31 | 13 | 33 | 1017 | 10 | E/NE 20.3 | |
| Oggi h: 10:30 | Sereno | 31 | 13 | 33 | 1017 | 10 | E 18.5 | |
| Oggi h: 10:00 | Sereno | 30 | 13 | 35 | 1017 | 10 | E 16.7 | |
| Oggi h: 09:30 | Sereno | 29 | 13 | 37 | 1017 | 10 | NE 22.2 | |
| Oggi h: 09:00 | Sereno | 29 | 13 | 37 | 1016 | 10 | E/NE 18.5 | |
| Oggi h: 08:30 | Sereno | 28 | 12 | 37 | 1016 | 10 | E/NE 13 | |
| Oggi h: 08:00 | Sereno | 26 | 13 | 44 | 1016 | 10 | E/NE 9.3 | |
| Oggi h: 07:30 | Sereno | 24 | 14 | 53 | 1016 | 10 | N 5.5 | |
| Oggi h: 07:00 | Sereno | 22 | 14 | 60 | 1016 | 10 | N 1.8 | |
| Oggi h: 06:30 | Sereno | 21 | 14 | 64 | 1016 | 10 | E/NE 9.3 | |
| Oggi h: 06:00 | Sereno | 20 | 15 | 72 | 1015 | 10 | N 3.7 | |
| Oggi h: 05:30 | Sereno | 20 | 16 | 77 | 1015 | 10 | N 3.7 | |
| Oggi h: 05:00 | Sereno | 19 | 18 | 93 | 1015 | 10 | N 1.8 | |
| Oggi h: 04:30 | Sereno | 17 | 17 | 100 | 1015 | 10 | N 5.5 | |
| Oggi h: 04:00 | Sereno | 19 | 18 | 93 | 1015 | 10 | N 1.8 | |
| Oggi h: 03:30 | Sereno | 20 | 19 | 93 | 1015 | 10 | N 5.5 | |
| Oggi h: 03:00 | Sereno | 21 | 20 | 94 | 1015 | 10 | N 5.5 | |
| Oggi h: 02:30 | Sereno | 21 | 19 | 88 | 1015 | 10 | N 1.8 | |
| Oggi h: 02:00 | Sereno | 20 | 18 | 88 | 1015 | 10 | N 3.7 | |
| Oggi h: 01:30 | Sereno | 20 | 19 | 93 | 1015 | 10 | N 5.5 | |
| Oggi h: 01:00 | Sereno | 20 | 18 | 88 | 1015 | 10 | N 5.5 | |
| Oggi h: 00:30 | Sereno | 19 | 18 | 93 | 1015 | 10 | N 3.7 | |
| Oggi h: 00:00 | Sereno | 19 | 17 | 88 | 1015 | 10 | N 1.8 | |
| Ieri h: 23:30 | Sereno | 19 | 17 | 88 | 1015 | 10 | N 1.8 | |
| Ieri h: 23:00 | Sereno | 19 | 17 | 88 | 1014 | 10 | N 1.8 | |
| Ieri h: 22:30 | Sereno | 20 | 18 | 88 | 1014 | 10 | N 1.8 | |
| Ieri h: 22:00 | Sereno | 21 | 17 | 77 | 1014 | 10 | N 1.8 | |
| Ieri h: 21:30 | Sereno | 21 | 17 | 77 | 1014 | 10 | N 0 | |
| Ieri h: 21:00 | Sereno | 23 | 18 | 73 | 1014 | 10 | N 3.7 | |



